Weather in De Koog

Netherlands     53°05′59″N   4°45′46″E
temp.,
°C
wind,
m/s
gust,
m/s
humid.,
%
clouds,
%
prec.,
mm/h
press.,
hPa
HPBL,
m
26 june, sun
sun2623:00+16ene5694100 4.1 1011261
02:00+16s4695100 5.4 1011234
05:00+16wsw5788100 0.6 1011529
08:00+16sw8981100 0.6 1013746
11:00+17sw7871100 0.0 1015798
14:00+17sw6870100 0.0 1016859
17:00+17wsw5769100 0.0 1016383
20:00+17ssw1164100 0.0 101686
27 june, mon
mon2723:00+17e4572100 0.0 1016124
02:00+17se3379100 0.5 101657
05:00+16ese2281100 1.6 101574
08:00+17s3379100 1.6 1015141
11:00+17sw3475100 0.3 1016115
14:00+17w6675100 0.6 1017386
17:00+16w45750 0.0 1017326
20:00+16sw56680 0.0 1018396
28 june, tue
tue2823:00+16ssw79775 0.0 1019413
02:00+16sw67795 0.0 1019493
05:00+16ssw56770 0.0 1020375
08:00+16ssw66782 0.1 1020574
11:00+16sw66715 0.0 1021788
14:00+17sw78705 0.0 1020623
17:00+17w4567100 0.0 1019211
20:00+17ene4465100 0.0 1018101
29 june, wed
wed2923:00+17e91281100 0.0 1017205
02:00+17ese8128094 0.0 1016175
05:00+17sse71081100 0.0 1015161
08:00+17sse577985 0.0 1015126
11:00+19s4470100 0.0 101556
14:00+17wsw67815 0.0 1016164
17:00+18w34770 0.0 1015160
20:00+18n337215 0.0 101451
30 june, thu
thu3023:00+18ne557695 0.0 101572
02:00+18ene45800 0.0 101464
05:00+18ene33870 0.0 101340
08:00+18se33881 0.0 101324
11:00+19e45835 0.0 101267
14:00+20ene558356 0.1 101194
17:00+21ese7107836 0.8 1009142
20:00+20ene3485100 2.5 100835